Weather History for Asheville, NC

Change the Weather History Date:

Monday, November 3, 2008

  Actual Average Record
Temperature  
Mean Temperature 50 °F 51 °F  
Max Temperature 67 °F 63 °F 81 °F (1974)
Min Temperature 32 °F 39 °F 19 °F (1954)
Degree Days  
Heating Degree Days 15 14  
Month to date heating degree days 45 41  
Since 1 July heating degree days 411 376  
Cooling Degree Days 0 0  
Month to date cooling degree days 0 0  
Year to date cooling degree days 875 862  
Moisture  
Dew Point 39 °F    
Average Humidity 66    
Maximum Humidity 100    
Minimum Humidity 32    
Precipitation  
Precipitation 0.00 in 0.11 in 1.80 in (1900)
Month to date precipitation 0.00 0.32  
Year to date precipitation 29.28 38.65  
Snow  
Snow 0.00 in 0.00 in T in (1999)
Month to date snowfall 0.0 0.0  
Since 1 July snowfall T 0.0  
Since 1 September snowfall T 0.0  
Snow Depth -    
Sea Level Pressure  
Sea Level Pressure 30.35 in    
Wind  
Wind Speed 2 mph (ESE)    
Max Wind Speed 10 mph    
Max Gust Speed 14 mph    
Visibility 8 miles    
Events      
T = Trace of Precipitation, MM = Missing Value Source: NWS Daily Summary

Daily Weather History Graph

Daily Weather History Graph

Search for Another Location

Airport:

Trip Planner

Search our weather history database for the weather conditions in past years. The results will help you decide how hot, cold, wet, or windy it might be!

Date:

Astronomy

Nov. 03, 2008 Rise Set
Actual Time 6:54 AM EST 5:32 PM EST
Civil Twilight 6:27 AM EST 5:59 PM EST
Nautical Twilight 5:57 AM EST 6:29 PM EST
Astronomical Twilight 5:27 AM EST 6:59 PM EST
Moon 12:00 PM EST (11/3) 9:46 PM EST (11/3)
Length of Visible Light 11h 31m
Length of Day
10h 38m
Waxing Crescent, 27% of the Moon is Illuminated
Nov 3
Waxing Crescent
Nov 5
First Quarter
Nov 13
Full
Nov 19
Last Quarter
Nov 27
New

Hourly Weather History & Observations

Time (EST) Temp. Dew Point Humidity Pressure Visibility Wind Dir Wind Speed Gust Speed Precip Events Conditions
12:54 AM 39.9 °F 37.0 °F 89% 30.36 in 10.0 mi Calm Calm - N/A   Clear
1:54 AM 39.0 °F 36.0 °F 89% 30.35 in 8.0 mi Calm Calm - N/A   Clear
2:54 AM 36.0 °F 35.1 °F 97% 30.35 in 8.0 mi Calm Calm - N/A   Clear
3:54 AM 36.0 °F 35.1 °F 97% 30.35 in 5.0 mi Calm Calm - N/A   Clear
4:54 AM 33.1 °F 32.0 °F 96% 30.37 in 6.0 mi Calm Calm - N/A   Clear
5:02 AM 33.8 °F 33.8 °F 100% 30.38 in 2.0 mi Calm Calm - N/A   Partly Cloudy
5:05 AM 33.8 °F 33.8 °F 100% 30.38 in 1.2 mi Calm Calm - N/A   Scattered Clouds
5:15 AM 33.8 °F 33.8 °F 100% 30.38 in 2.0 mi Calm Calm - N/A   Partly Cloudy
5:23 AM 33.8 °F 33.8 °F 100% 30.38 in 6.0 mi Calm Calm - N/A   Partly Cloudy
5:54 AM 35.1 °F 33.1 °F 92% 30.37 in 7.0 mi Calm Calm - N/A   Clear
6:54 AM 33.1 °F 32.0 °F 96% 30.41 in 7.0 mi Calm Calm - N/A   Clear
7:54 AM 37.0 °F 35.1 °F 93% 30.44 in 7.0 mi Calm Calm - N/A   Clear
8:54 AM 45.0 °F 39.9 °F 82% 30.42 in 10.0 mi Calm Calm - N/A   Clear
9:54 AM 53.1 °F 43.0 °F 69% 30.40 in 10.0 mi NNW 5.8 mph - N/A   Clear
10:54 AM 57.9 °F 43.0 °F 58% 30.39 in 10.0 mi NW 3.5 mph - N/A   Clear
11:54 AM 62.1 °F 43.0 °F 50% 30.36 in 10.0 mi South 3.5 mph - N/A   Clear
12:54 PM 64.9 °F 35.1 °F 33% 30.33 in 10.0 mi Variable 3.5 mph - N/A   Clear
1:54 PM 66.0 °F 35.1 °F 32% 30.30 in 10.0 mi East 4.6 mph - N/A   Clear
2:54 PM 66.0 °F 36.0 °F 33% 30.29 in 10.0 mi ESE 5.8 mph - N/A   Clear
3:54 PM 64.0 °F 39.9 °F 41% 30.29 in 10.0 mi SSE 6.9 mph - N/A   Clear
4:54 PM 62.1 °F 44.1 °F 52% 30.29 in 10.0 mi SE 4.6 mph - N/A   Clear
5:54 PM 59.0 °F 46.0 °F 62% 30.30 in 10.0 mi Calm Calm - N/A   Clear
6:54 PM 53.1 °F 46.0 °F 77% 30.33 in 10.0 mi Calm Calm - N/A   Clear
7:54 PM 55.0 °F 45.0 °F 69% 30.32 in 10.0 mi Calm Calm - N/A   Clear
8:54 PM 50.0 °F 44.1 °F 80% 30.33 in 10.0 mi Calm Calm - N/A   Clear
9:54 PM 48.0 °F 44.1 °F 86% 30.32 in 10.0 mi Calm Calm - N/A   Overcast
10:54 PM 46.9 °F 44.1 °F 90% 30.30 in 10.0 mi Calm Calm - N/A   Mostly Cloudy
11:54 PM 48.0 °F 45.0 °F 89% 30.29 in 10.0 mi NNW 3.5 mph - N/A   Overcast